This is the latest recevied weather packets stored in our database for station/object IU5JAE-13. If no packets are shown the sender has not sent any weather packets the latest 10 day(s).
| Time | Temp. | Humidity | Pressure | Rain* | Wind** | Luminosity | Snow |
|---|---|---|---|---|---|---|---|
| 1788627330 | 24.44° C | 80% | 1020 hPa | 0 mm | - | 22 W/m² | - |
| 1788626727 | 24.44° C | 80% | 1020.1 hPa | 0 mm | - | 26 W/m² | - |
| 1788626125 | 25° C | 79% | 1020.1 hPa | 0 mm | - | 28 W/m² | - |
| 1788625523 | 25° C | 78% | 1020.1 hPa | 0 mm | - | 30 W/m² | - |
| 1788624920 | 25° C | 77% | 1020 hPa | 0 mm | - | 32 W/m² | - |
| 1788624318 | 25.56° C | 76% | 1020 hPa | 0 mm | - | 34 W/m² | - |
| 1788623715 | 26.11° C | 73% | 1020 hPa | 0 mm | - | 126 W/m² | - |
| 1788623133 | 26.67° C | 72% | 1019.9 hPa | 0 mm | - | 148 W/m² | - |
| 1788622531 | 26.11° C | 73% | 1020 hPa | 0 mm | - | 167 W/m² | - |
| 1788621929 | 26.67° C | 71% | 1019.9 hPa | 0 mm | - | 186 W/m² | - |
| 1788621326 | 26.67° C | 70% | 1020 hPa | 0 mm | - | 206 W/m² | - |
| 1788620723 | 27.22° C | 69% | 1020 hPa | 0 mm | - | 223 W/m² | - |
| 1788620121 | 27.78° C | 68% | 1020 hPa | 0 mm | - | 247 W/m² | - |
| 1788619518 | 27.22° C | 68% | 1020.1 hPa | 0 mm | - | 261 W/m² | - |
| 1788618916 | 27.78° C | 67% | 1020.3 hPa | 0 mm | - | 279 W/m² | - |
| 1788618334 | 27.78° C | 67% | 1020.3 hPa | 0 mm | - | 249 W/m² | - |
| 1788617731 | 27.78° C | 66% | 1020.3 hPa | 0 mm | - | 321 W/m² | - |
| 1788617129 | 27.78° C | 65% | 1020.3 hPa | 0 mm | - | 308 W/m² | - |
| 1788616526 | 28.33° C | 64% | 1020.3 hPa | 0 mm | - | 301 W/m² | - |
| 1788615924 | 28.33° C | 64% | 1020.5 hPa | 0 mm | - | 338 W/m² | - |
| 1788615322 | 28.33° C | 63% | 1020.5 hPa | 0 mm | - | 372 W/m² | - |
| 1788614719 | 28.89° C | 63% | 1020.6 hPa | 0 mm | - | 416 W/m² | - |
| 1788614117 | 28.89° C | 62% | 1020.7 hPa | 0 mm | - | 439 W/m² | - |
| 1788613534 | 28.33° C | 63% | 1020.7 hPa | 0 mm | - | 458 W/m² | - |
| 1788612932 | 28.33° C | 62% | 1020.7 hPa | 0 mm | - | 479 W/m² | - |
* Rain latest hour (hover to see other rain measurements)
** Current wind speed in m/s (hover to see current wind gust speed)